ROMMA est une association bénévole à but non lucratif. Votre soutien est indispensable : ADHERER à ROMMA ou FAIRE un DON

Val-d'Arly - (73, Savoie)

Beaufortain (2050 m)   Longitude: 06° 35' 21" E   Latitude: 45° 46' 53" N Station romma n°118
 

Détail journalier du     <<     >>

Température Humidité Vent Dir Rafale Dir. rafale Ensol.
Heure (°C) (%) (km/h) (km/h) (min)
01:00 1.77615---24---0
02:00 1.77612---21---0
03:00 1.97711---16---0
04:00 1.7782---10---0
05:00 1.4816---16---0
06:00 1.38113---24---0
07:00 1.4816---19---0
08:00 1.97811---19---0
09:00 2.2778---18---50
10:00 2.4756---10---20
11:00
12:00 2.7812---6---10
13:00 2.4873---8---30
14:00 1.6904---10---0
15:00 1.7886---13---10
16:00 1.2918---16---40
17:00 1.9844---10---0
18:00 1.6874---10---0
19:00 1.6883---8---0
20:00 2.2825---13---0
21:00 1.7864---10---0
22:00 2.1833---8---0
23:00 2.5783---6---0
minuit 2.8806---10---0

Graphique du 24-11-2019

 

Serveur OMMA